Volver al catálogo

OPS 4682 DEB

ActivoPO
NORAD 51489·DEBRIS·🇺🇸 United States

Lanzado Apr 3, 1965 desde Vandenberg Space Force Base

Loading…

Próximos Pases (próximas 24 horas)

TLE

ActualizadoSource: Space-Track

Época: Sep 13, 2026, 01:01 UTC

1 51489U 65027FZ  26256.04274624  .00000019  00000-0  43332-4 0  9996
2 51489  90.2508   8.9999 0025908  32.4205 327.8499 12.93828793487987

Sigue OPS 4682 DEB en tiempo real con AllMySat

Download on the App Store